COSMOS 2251 DEB, 33992

Orbit data source: Space-Track

COSMOS 2251 DEB, 33992 is space debris in LEO originally from a launch on Wed, 16 Jun 1993 UTC launched from the Plesetsk Missile And Space Complex (PKMTR). The debris from Iridium 33, an American commercial communications satellite, has been tracked extensively since its accidental collision with the defunct Russian satellite Cosmos 2251 in 2009. This event, occurring at high speed in low Earth orbit (LEO), generated thousands of pieces of space debris, significantly increasing the risk of further collisions. The Iridium 33 debris cloud has impacted space traffic management and orbital debris mitigation strategies, making it a subject of ongoing study in space situational awareness.

Loading next visibility...
Identifier
33992, 1993-036GB
Orbit
LEO
Country
Flag of CISCIS
Related business
Manufacturer
Unknown
Mission
Spacecraft
Bus & Motor
Unknown
Mass
Unknown
Launch date (UTC)
1993-06-16 (33 years ago)
Launch vehicle
Unknown
Launch site
Plesetsk Missile And Space Complex (PKMTR)
Object type
Payload
Rocket body
Debris
Shape & HBR
Unknown shape, 0.2 m
Radar Cross Section
Small (<0.1 m²)

Expand to show TLE details & history
Last TLE update: 17 hours ago

TLE from 17 hours ago
0 COSMOS 2251 DEB
1 33992U 93036GB  26145.09504147  .00002941  00000-0  51268-3 0  9996
2 33992  74.0242  22.2649 0052957 100.3236  58.4468 14.67573644915204
Epoch: 2026-05-25T02:16Z
TLE epoch observation values (Epoch: 2026-05-25T02:16:51.583Z)
Latitude
19.88557°
Longitude
-80.54933°
Altitude
651.655 km
Speed
7.544 km/s
True Right ascension
13h 05m 24s
True Declination
19° 46' 27"
Sunlit
Object was in full shadow at epoch
Visualization orbit readout
Latitude
Unknown
Longitude
Unknown
Altitude
Unknown
Speed
Unknown
Apparent Right ascension
Unknown
Apparent Declination
Unknown
Sunlit
N/A
Visualization observer readout
Local Sidereal Time
04:07:46
Azimuth
Unknown
Elevation
Unknown
Doppler factor
Unknown
Orbital elements
Apogee altitude
703.721 km
Perigee altitude
629.109 km
Semi-major axis
7,044.552 km
Eccentricity
0.0053
Inclination
74.0242°
RAAN
22.2649°
Arg. of periapsis
100.3236°
True anomaly
58.96571°
Mean anomaly
58.4468°
Eccentric anomaly
58.70608°
Mean motion
3.67082 °/min
Orbital period
98.07 mins
BSTAR
0.00051268

Documentation

Showing up to 5 results
|